User: anonymous   Login
Location: Unspecified
(0.0000°N, 0.0000°E)
Time: 09:09:37
(UTC+01:00)
Language:

ATLAS 5 CENTAUR R/B - Orbit

View from above orbital plane
View from above orbital plane
View from above satellite
View from above satellite

Ground track
Ground track

The orbit data is extracted from the following two-line orbital elements,

1 31702U 07027B   16044.22365628 0.00000000  00000-0  00000-0 0    01
2 31702  63.3717 209.9570 0219000 358.1411   1.8588 14.18456389    08
Epoch (UTC): 13 February 2016 05:22:03
Eccentricity: 0.0219000
inclination: 63.3717°
perigee height: 673 km
apogee height: 988 km
right ascension of ascending node: 209.9570°
argument of perigee: 358.1411°
revolutions per day: 14.18456389
mean anomaly at epoch: 1.8588°
orbit number at epoch: 0

The dashed part of the orbit path shows where the satellite is in the earth's shadow,  

DLR